Location: Newark
(39.0622°N, 106.5590°E)
Time: 13:39:27
(UTC+00:00)

Courier 1B - Pass Details

Date: 27 January 2020
Orbit: 962 x 1209 km, 28.3° (Epoch: 28 February)

Event Time Altitude Azimuth Distance (km) Brightness Sun altitude
Rises 23:11:13 0° 262° (W) 3,969 - -10.6°
Exits shadow 23:13:24 - 254° (WSW) 3,352 9.8 -10.2°
Reaches altitude 10° 23:14:35 10° 248° (WSW) 3,046 9.6 -10.0°
Maximum altitude 23:20:17 23° 199° (SSW) 2,256 9.4 -8.9°
Drops below altitude 10° 23:26:07 10° 151° (SSE) 3,128 10.9 -7.8°
Sets 23:29:39 0° 137° (SE) 4,100 12.0 -7.2°
